Location: Newark
(40.7119°N, 74.0097°W)
Time: 03:43:58
(UTC+00:00)

Tiangong - Pass Details

Date: 27 June 2021
Orbit: 374 x 386 km, 41.5° (Epoch: 27 July)

Event Time Altitude Azimuth Distance (km) Brightness Sun altitude
Exits shadow 08:15:18 - 280° (W) 1,575 3.8 -11.4°
Reaches altitude 10° 08:15:45 10° 280° (W) 1,385 3.5 -11.4°
Maximum altitude 08:18:53 88° 190° (S) 382 1.0 -11.0°
Drops below altitude 10° 08:22:01 10° 101° (ESE) 1,391 4.4 -10.5°
Sets 08:24:06 0° 102° (ESE) 2,245 5.5 -10.2°
